DW6252 Weather Reports


time (UTC)temp
C
wind
direction
speed
KPH
gust
KPH
rain 1hr
cm
rain 24hr
cm
rain mn
cm
humidity
%
barometer
mb
20260906173012 20 360 9.7 16.1 0.00 0.00 0.00 89 1019.3
20260906171506 20 360 14.5 16.1 0.00 0.00 0.00 88 1019.6
20260906170004 20 360 12.9 16.1 0.00 0.00 0.00 90 1019.7
20260906164502 20 360 12.9 16.1 0.00 0.00 0.00 90 1019.6
20260906163102 20 360 9.7 12.9 0.00 0.00 0.00 90 1019.7
20260906161556 20 360 6.4 9.7 0.00 0.00 0.00 90 1019.6
20260906160057 20 360 6.4 9.7 0.00 0.00 0.00 90 1019.6
20260906154554 19 360 0.0 6.4 0.00 0.00 0.00 90 1019.5
20260906153054 19 360 0.0 0.0 0.00 0.00 0.00 91 1019.5
20260906151523 19 360 0.0 0.0 0.00 0.00 0.00 90 1019.6
20260906150031 20 42 0.0 0.0 0.00 0.00 0.00 89 1019.6
20260906144521 20 42 0.0 0.0 0.00 0.00 0.00 87 1019.7
20260906143020 20 42 0.0 0.0 0.00 0.00 0.00 89 1019.8
20260906141520 20 15 0.0 0.0 0.00 0.00 0.00 87 1019.9
20260906140038 20 355 0.0 0.0 0.00 0.00 0.00 86 1020.0
20260906134517 20 355 0.0 0.0 0.00 0.00 0.00 88 1020.0
20260906133016 20 355 0.0 0.0 0.00 0.00 0.00 88 1020.0
20260906131515 19 355 0.0 0.0 0.00 0.00 0.00 92 1019.8
20260906130015 18 355 0.0 0.0 0.00 0.00 0.00 94 1019.8
20260906124545 17 355 0.0 0.0 0.00 0.00 0.00 94 1019.8
20260906123045 17 355 0.0 0.0 0.00 0.00 0.00 94 1019.7
20260906121539 17 355 0.0 0.0 0.00 0.00 0.00 94 1019.5
20260906120045 16 355 0.0 0.0 0.00 0.00 0.00 95 1019.5
20260906114536 16 355 0.0 0.0 0.00 0.00 0.00 95 1019.1
20260906113040 16 355 0.0 0.0 0.00 0.00 0.00 95 1019.1
20260906111534 16 355 0.0 0.0 0.00 0.00 0.00 94 1018.9
20260906110031 16 355 0.0 0.0 0.00 0.00 0.00 94 1018.6
20260906104534 16 355 0.0 0.0 0.00 0.00 0.00 94 1018.6
20260906103030 16 355 0.0 0.0 0.00 0.00 0.00 94 1018.5
20260906101559 16 355 0.0 0.0 0.00 0.00 0.00 94 1018.5
20260906100059 16 355 0.0 0.0 0.00 0.00 0.00 93 1018.2
20260906094607 16 355 0.0 0.0 0.00 0.00 0.00 93 1018.2
20260906093104 16 355 0.0 0.0 0.00 0.00 0.00 93 1018.2
20260906091554 16 355 0.0 0.0 0.00 0.00 0.00 93 1018.6
20260906090134 16 355 0.0 0.0 0.00 0.00 0.00 93 1018.6
20260906084555 16 355 0.0 0.0 0.00 0.00 0.00 93 1018.5
20260906083051 16 355 0.0 0.0 0.00 0.00 0.00 93 1018.4
20260906081550 16 355 0.0 0.0 0.00 0.00 0.00 92 1018.6
20260906074532 16 355 0.0 0.0 0.00 0.03 0.00 91 1018.4
20260906073023 16 355 0.0 0.0 0.00 0.03 0.00 91 1018.5
20260906071513 17 355 0.0 0.0 0.00 0.03 0.00 91 1018.5
20260906070012 17 355 0.0 0.0 0.00 0.05 0.00 90 1018.5
20260906064510 17 355 0.0 0.0 0.00 0.05 0.00 90 1018.7
20260906063009 17 355 0.0 0.0 0.00 0.05 0.00 89 1018.7
20260906061505 18 355 0.0 0.0 0.00 0.05 0.00 88 1018.7
20260906060007 18 355 0.0 0.0 0.00 0.05 0.00 87 1018.5
20260906054503 18 355 0.0 0.0 0.00 0.05 0.00 87 1018.5
20260906053003 18 355 0.0 0.0 0.00 0.05 0.00 86 1018.3
20260906051537 18 355 0.0 0.0 0.00 0.05 0.00 86 1018.5
20260906050032 18 355 0.0 0.0 0.00 0.05 0.00 86 1018.4
20260906044530 18 355 0.0 0.0 0.00 0.05 0.00 86 1018.4
20260906043031 18 355 0.0 9.7 0.00 0.05 0.00 86 1018.3
20260906041542 18 360 4.8 12.9 0.00 0.05 0.00 86 1018.2
20260906040028 18 11 1.6 9.7 0.00 0.05 0.00 85 1018.1
20260906034534 18 26 6.4 16.1 0.00 0.05 0.00 84 1017.8
20260906033025 18 17 4.8 16.1 0.00 0.05 0.00 84 1017.8
20260906031524 18 20 9.7 17.7 0.00 0.05 0.00 84 1018.2
20260906030032 18 23 4.8 12.9 0.00 0.05 0.00 85 1017.9
20260906024523 18 21 0.0 0.0 0.00 0.05 0.00 85 1017.9
20260906023104 18 11 0.0 0.0 0.00 0.05 0.00 86 1018.0
20260906021555 18 11 0.0 0.0 0.00 0.05 0.00 86 1017.8
20260906020051 18 29 0.0 0.0 0.00 0.05 0.00 87 1017.7
20260906014552 18 30 0.0 0.0 0.00 0.05 0.00 87 1017.7
20260906013049 18 31 0.0 0.0 0.00 0.05 0.00 87 1017.7
20260906011558 18 360 0.0 0.0 0.00 0.05 0.00 87 1017.4
20260906010113 18 60 0.0 0.0 0.00 0.05 0.00 87 1017.6
20260906004547 18 60 0.0 0.0 0.00 0.05 0.00 86 1017.5
20260906003045 19 60 0.0 0.0 0.00 0.05 0.00 85 1017.5
20260906001557 19 60 0.0 6.4 0.00 0.05 0.00 85 1017.5
20260906000035 20 360 1.6 9.7 0.00 0.05 0.00 84 1017.7
20260905234535 20 360 3.2 9.7 0.00 0.05 0.00 83 1017.5
20260905233035 20 360 0.0 9.7 0.00 0.05 0.00 83 1017.4
20260905231540 20 360 4.8 17.7 0.00 0.05 0.00 85 1017.7
20260905230002 21 360 6.4 14.5 0.00 0.05 0.00 81 1017.7
20260905224503 21 360 9.7 14.5 0.00 0.05 0.00 81 1017.7
20260905223057 21 80 4.8 16.1 0.00 0.05 0.00 80 1017.7
20260905221557 20 83 17.7 20.9 0.00 0.05 0.00 79 1017.6
20260905220055 21 360 4.8 17.7 0.00 0.05 0.00 79 1017.7
20260905214555 21 360 11.3 17.7 0.00 0.05 0.00 76 1017.8
20260905213056 21 342 8.0 16.1 0.00 0.05 0.00 73 1017.8
20260905211551 21 360 9.7 17.7 0.00 0.05 0.00 73 1017.7
20260905210050 21 360 9.7 20.9 0.00 0.05 0.00 76 1018.1
20260905204546 20 360 16.1 19.3 0.00 0.05 0.00 83 1018.1
20260905203053 20 97 14.5 20.9 0.00 0.05 0.00 88 1018.0
20260905201555 20 92 14.5 17.7 0.00 0.05 0.00 89 1018.1
20260905200040 21 360 14.5 20.9 0.00 0.05 0.00 85 1018.1
20260905194539 21 360 19.3 22.5 0.00 0.05 0.00 77 1018.3
20260905193008 21 360 14.5 17.7 0.00 0.05 0.00 74 1018.3
20260905191503 20 360 12.9 17.7 0.00 0.05 0.00 80 1018.3
20260905184611 20 360 11.3 16.1 0.00 0.05 0.00 88 1018.1
20260905183111 20 86 11.3 12.9 0.00 0.05 0.00 89 1018.5
20260905181556 20 85 12.9 14.5 0.00 0.05 0.00 88 1018.5
20260905180056 20 102 11.3 17.7 0.00 0.05 0.00 88 1018.5
20260905174552 20 360 12.9 16.1 0.00 0.05 0.00 88 1018.6